N303CO KCRG-KTPA

Flight info

Callsign N303CO
Flight time 1h 2m
Altitude 16500
Route VFR
Aircraft BE58/L-V/N

Departure

Time 2026-04-20 23:39
Airport Jacksonville Executive at Craig Airport (KCRG)

Arrival

Time 2026-04-21 00:41
Airport Tampa International Airport (KTPA)
Time Latitude Longitude Altitude Speed Heading
2026-04-20 23:31 30.33478 -81.51603 42 ft 0 kts 315°
2026-04-20 23:33 30.33483 -81.51611 42 ft 6 kts 293°
2026-04-20 23:34 30.33450 -81.51615 42 ft 8 kts 109°
2026-04-20 23:34 30.33423 -81.51565 43 ft 6 kts 134°
2026-04-20 23:34 30.33422 -81.51564 43 ft 0 kts 134°
2026-04-20 23:34 30.33401 -81.51549 43 ft 8 kts 177°
2026-04-20 23:35 30.33353 -81.51595 43 ft 9 kts 224°
2026-04-20 23:35 30.33271 -81.51691 43 ft 8 kts 223°
2026-04-20 23:35 30.33230 -81.51736 44 ft 9 kts 224°
2026-04-20 23:36 30.33175 -81.51798 44 ft 14 kts 225°
2026-04-20 23:36 30.33090 -81.51894 44 ft 19 kts 217°
2026-04-20 23:36 30.32999 -81.51989 43 ft 14 kts 225°
2026-04-20 23:36 30.32964 -81.51985 43 ft 13 kts 122°
2026-04-20 23:37 30.32942 -81.51943 43 ft 0 kts 133°
2026-04-20 23:37 30.32939 -81.51939 43 ft 4 kts 136°
2026-04-20 23:37 30.32900 -81.51884 43 ft 3 kts 63°
2026-04-20 23:38 30.32907 -81.51875 43 ft 11 kts 47°
2026-04-20 23:38 30.33133 -81.51618 43 ft 77 kts 44°
2026-04-20 23:38 30.33613 -81.51062 90 ft 111 kts 46°
2026-04-20 23:38 30.34114 -81.50382 429 ft 109 kts 71°
2026-04-20 23:39 30.33787 -81.49648 625 ft 130 kts 159°
2026-04-20 23:39 30.32815 -81.49886 599 ft 159 kts 218°
2026-04-20 23:39 30.32267 -81.50924 949 ft 149 kts 243°
2026-04-20 23:39 30.31588 -81.51794 1278 ft 145 kts 211°
2026-04-20 23:40 30.30679 -81.52276 1545 ft 143 kts 199°
2026-04-20 23:40 30.29748 -81.52712 1817 ft 145 kts 198°
2026-04-20 23:40 30.28804 -81.53140 2092 ft 146 kts 198°
2026-04-20 23:40 30.27858 -81.53562 2368 ft 146 kts 198°
2026-04-20 23:41 30.26904 -81.53987 2638 ft 148 kts 198°
2026-04-20 23:41 30.25943 -81.54416 2911 ft 148 kts 199°
2026-04-20 23:41 30.24994 -81.54837 3178 ft 148 kts 198°
2026-04-20 23:41 30.24036 -81.55264 3449 ft 147 kts 199°
2026-04-20 23:42 30.23087 -81.55688 3718 ft 145 kts 200°
2026-04-20 23:42 30.22143 -81.56107 3982 ft 145 kts 200°
2026-04-20 23:42 30.21210 -81.56521 4254 ft 142 kts 200°
2026-04-20 23:42 30.20293 -81.56930 4525 ft 140 kts 201°
2026-04-20 23:43 30.19386 -81.57332 4797 ft 139 kts 202°
2026-04-20 23:43 30.18789 -81.57599 4978 ft 138 kts 202°
2026-04-20 23:43 30.17617 -81.58119 5308 ft 136 kts 203°
2026-04-20 23:43 30.16717 -81.58520 5511 ft 140 kts 203°
2026-04-20 23:44 30.15802 -81.58927 5718 ft 142 kts 203°
2026-04-20 23:44 30.15173 -81.59207 5859 ft 144 kts 204°
2026-04-20 23:44 30.14335 -81.59580 6048 ft 145 kts 203°
2026-04-20 23:44 30.14307 -81.59592 6054 ft 145 kts 203°
2026-04-20 23:45 30.13363 -81.60012 6262 ft 145 kts 204°
2026-04-20 23:45 30.12421 -81.60428 6473 ft 144 kts 204°
2026-04-20 23:45 30.11493 -81.60840 6672 ft 141 kts 204°
2026-04-20 23:45 30.10583 -81.61244 6858 ft 138 kts 205°
2026-04-20 23:46 30.09698 -81.61635 7030 ft 131 kts 205°
2026-04-20 23:46 30.08878 -81.61997 7129 ft 123 kts 206°
2026-04-20 23:46 30.08082 -81.62347 7167 ft 121 kts 205°
2026-04-20 23:46 30.07311 -81.62692 7220 ft 121 kts 205°
2026-04-20 23:47 30.06515 -81.63046 7305 ft 126 kts 206°
2026-04-20 23:47 30.05673 -81.63424 7407 ft 134 kts 205°
2026-04-20 23:47 30.05573 -81.63469 7420 ft 135 kts 205°
2026-04-20 23:47 30.04723 -81.63848 7521 ft 142 kts 206°
2026-04-20 23:48 30.03782 -81.64267 7633 ft 148 kts 205°
2026-04-20 23:48 30.02806 -81.64699 7735 ft 152 kts 205°
2026-04-20 23:48 30.01799 -81.65144 7830 ft 157 kts 205°
2026-04-20 23:48 30.00770 -81.65599 7923 ft 160 kts 205°
2026-04-20 23:49 29.99721 -81.66063 8002 ft 163 kts 205°
2026-04-20 23:49 29.98653 -81.66535 8087 ft 166 kts 205°
2026-04-20 23:49 29.97567 -81.67017 8169 ft 168 kts 205°
2026-04-20 23:49 29.96474 -81.67500 8252 ft 168 kts 205°
2026-04-20 23:50 29.95376 -81.67986 8330 ft 169 kts 205°
2026-04-20 23:50 29.94275 -81.68473 8408 ft 169 kts 205°
2026-04-20 23:50 29.93187 -81.68954 8483 ft 170 kts 205°
2026-04-20 23:50 29.92082 -81.69442 8559 ft 170 kts 205°
2026-04-20 23:51 29.90978 -81.69931 8635 ft 170 kts 205°
2026-04-20 23:51 29.90725 -81.70042 8655 ft 170 kts 205°
2026-04-20 23:51 29.90059 -81.70336 8700 ft 170 kts 205°
2026-04-20 23:51 29.88955 -81.70825 8775 ft 170 kts 205°
2026-04-20 23:52 29.87852 -81.71311 8852 ft 170 kts 205°
2026-04-20 23:52 29.86742 -81.71802 8928 ft 170 kts 205°
2026-04-20 23:52 29.85636 -81.72291 9004 ft 170 kts 205°
2026-04-20 23:52 29.84545 -81.72772 9078 ft 170 kts 205°
2026-04-20 23:53 29.83447 -81.73256 9151 ft 169 kts 205°
2026-04-20 23:53 29.82652 -81.73607 9206 ft 168 kts 206°
2026-04-20 23:53 29.82396 -81.73720 9223 ft 167 kts 206°
2026-04-20 23:53 29.81309 -81.74199 9297 ft 167 kts 205°
2026-04-20 23:54 29.80223 -81.74679 9376 ft 167 kts 206°
2026-04-20 23:54 29.79140 -81.75156 9446 ft 166 kts 206°
2026-04-20 23:54 29.78058 -81.75633 9522 ft 166 kts 205°
2026-04-20 23:54 29.76975 -81.76111 9594 ft 166 kts 206°
2026-04-20 23:55 29.75895 -81.76586 9674 ft 166 kts 206°
2026-04-20 23:55 29.74817 -81.77061 9750 ft 166 kts 206°
2026-04-20 23:55 29.73736 -81.77537 9827 ft 166 kts 206°
2026-04-20 23:55 29.72652 -81.78015 9905 ft 166 kts 206°
2026-04-20 23:56 29.71580 -81.78486 10018 ft 163 kts 206°
2026-04-20 23:56 29.70525 -81.78949 10137 ft 161 kts 206°
2026-04-20 23:56 29.69488 -81.79406 10250 ft 159 kts 206°
2026-04-20 23:56 29.68464 -81.79856 10357 ft 156 kts 207°
2026-04-20 23:57 29.67451 -81.80295 10466 ft 155 kts 206°
2026-04-20 23:57 29.66427 -81.80731 10493 ft 160 kts 206°
2026-04-20 23:57 29.65377 -81.81175 10503 ft 165 kts 206°
2026-04-20 23:57 29.64299 -81.81628 10496 ft 159 kts 206°
2026-04-20 23:58 29.63273 -81.82055 10485 ft 157 kts 206°
2026-04-20 23:58 29.62249 -81.82488 10485 ft 157 kts 206°
2026-04-20 23:58 29.61223 -81.82920 10487 ft 157 kts 206°
2026-04-20 23:58 29.60197 -81.83352 10492 ft 157 kts 206°
2026-04-20 23:59 29.59156 -81.83790 10501 ft 162 kts 206°
2026-04-20 23:59 29.58081 -81.84245 10514 ft 167 kts 206°
2026-04-20 23:59 29.56982 -81.84707 10510 ft 169 kts 205°
2026-04-20 23:59 29.55875 -81.85172 10505 ft 170 kts 205°
2026-04-21 00:00 29.54759 -81.85641 10508 ft 171 kts 205°
2026-04-21 00:00 29.53639 -81.86111 10510 ft 172 kts 205°
2026-04-21 00:00 29.52515 -81.86583 10509 ft 172 kts 205°
2026-04-21 00:00 29.51389 -81.87056 10509 ft 172 kts 205°
2026-04-21 00:01 29.50260 -81.87530 10504 ft 173 kts 205°
2026-04-21 00:01 29.49139 -81.88000 10505 ft 173 kts 205°
2026-04-21 00:01 29.48007 -81.88475 10506 ft 173 kts 205°
2026-04-21 00:01 29.46875 -81.88950 10506 ft 173 kts 205°
2026-04-21 00:02 29.45743 -81.89426 10503 ft 173 kts 205°
2026-04-21 00:02 29.44609 -81.89900 10503 ft 173 kts 205°
2026-04-21 00:02 29.43477 -81.90375 10503 ft 174 kts 205°
2026-04-21 00:02 29.42338 -81.90853 10503 ft 174 kts 205°
2026-04-21 00:03 29.41199 -81.91330 10501 ft 174 kts 205°
2026-04-21 00:03 29.40061 -81.91807 10501 ft 174 kts 205°
2026-04-21 00:03 29.38924 -81.92283 10500 ft 174 kts 205°
2026-04-21 00:03 29.37802 -81.92753 10501 ft 174 kts 205°
2026-04-21 00:04 29.36667 -81.93228 10502 ft 174 kts 205°
2026-04-21 00:04 29.35529 -81.93704 10502 ft 174 kts 205°
2026-04-21 00:04 29.34395 -81.94179 10496 ft 173 kts 205°
2026-04-21 00:04 29.33259 -81.94654 10496 ft 173 kts 205°
2026-04-21 00:05 29.32126 -81.95128 10492 ft 173 kts 205°
2026-04-21 00:05 29.30992 -81.95603 10491 ft 173 kts 205°
2026-04-21 00:05 29.29858 -81.96077 10492 ft 173 kts 205°
2026-04-21 00:05 29.28727 -81.96550 10489 ft 173 kts 205°
2026-04-21 00:06 29.27610 -81.97017 10491 ft 173 kts 205°
2026-04-21 00:06 29.26467 -81.97494 10491 ft 173 kts 205°
2026-04-21 00:06 29.25351 -81.97960 10490 ft 172 kts 205°
2026-04-21 00:06 29.24223 -81.98431 10491 ft 173 kts 205°
2026-04-21 00:07 29.23091 -81.98903 10488 ft 173 kts 205°
2026-04-21 00:07 29.21963 -81.99375 10487 ft 173 kts 205°
2026-04-21 00:07 29.20833 -81.99845 10487 ft 173 kts 205°
2026-04-21 00:07 29.19704 -82.00317 10488 ft 173 kts 205°
2026-04-21 00:08 29.18571 -82.00790 10484 ft 173 kts 205°
2026-04-21 00:08 29.17441 -82.01261 10485 ft 173 kts 205°
2026-04-21 00:08 29.16310 -82.01733 10485 ft 173 kts 205°
2026-04-21 00:08 29.15179 -82.02203 10485 ft 173 kts 205°
2026-04-21 00:09 29.14065 -82.02668 10488 ft 173 kts 205°
2026-04-21 00:09 29.12931 -82.03140 10487 ft 173 kts 205°
2026-04-21 00:09 29.11803 -82.03610 10486 ft 172 kts 205°
2026-04-21 00:09 29.10673 -82.04081 10486 ft 172 kts 205°
2026-04-21 00:10 29.09550 -82.04548 10485 ft 172 kts 205°
2026-04-21 00:10 29.08426 -82.05016 10485 ft 172 kts 205°
2026-04-21 00:10 29.07303 -82.05483 10483 ft 172 kts 205°
2026-04-21 00:10 29.06180 -82.05951 10484 ft 172 kts 205°
2026-04-21 00:11 29.05059 -82.06417 10493 ft 171 kts 205°
2026-04-21 00:11 29.03940 -82.06882 10492 ft 171 kts 205°
2026-04-21 00:11 29.02819 -82.07348 10491 ft 171 kts 205°
2026-04-21 00:11 29.01713 -82.07808 10491 ft 171 kts 205°
2026-04-21 00:12 29.00595 -82.08272 10488 ft 171 kts 205°
2026-04-21 00:12 28.99474 -82.08739 10487 ft 172 kts 205°
2026-04-21 00:12 28.98347 -82.09206 10488 ft 172 kts 205°
2026-04-21 00:12 28.97215 -82.09677 10488 ft 173 kts 205°
2026-04-21 00:13 28.96087 -82.10145 10491 ft 173 kts 205°
2026-04-21 00:13 28.94954 -82.10615 10490 ft 173 kts 204°
2026-04-21 00:13 28.93818 -82.11087 10489 ft 173 kts 205°
2026-04-21 00:13 28.92686 -82.11556 10489 ft 173 kts 204°
2026-04-21 00:14 28.91550 -82.12027 10488 ft 173 kts 205°
2026-04-21 00:14 28.90415 -82.12499 10488 ft 174 kts 205°
2026-04-21 00:14 28.89280 -82.12969 10484 ft 173 kts 205°
2026-04-21 00:14 28.88143 -82.13440 10483 ft 173 kts 204°
2026-04-21 00:15 28.87012 -82.13909 10477 ft 173 kts 204°
2026-04-21 00:15 28.85893 -82.14372 10475 ft 173 kts 205°
2026-04-21 00:15 28.84764 -82.14840 10474 ft 173 kts 205°
2026-04-21 00:15 28.83634 -82.15308 10471 ft 173 kts 205°
2026-04-21 00:16 28.82504 -82.15775 10487 ft 172 kts 205°
2026-04-21 00:16 28.81379 -82.16241 10493 ft 172 kts 205°
2026-04-21 00:16 28.80253 -82.16708 10494 ft 172 kts 205°
2026-04-21 00:16 28.79128 -82.17173 10494 ft 172 kts 205°
2026-04-21 00:17 28.78000 -82.17639 10493 ft 172 kts 204°
2026-04-21 00:17 28.76873 -82.18106 10492 ft 172 kts 205°
2026-04-21 00:17 28.75746 -82.18571 10491 ft 172 kts 205°
2026-04-21 00:17 28.74619 -82.19037 10492 ft 172 kts 205°
2026-04-21 00:18 28.73490 -82.19503 10494 ft 172 kts 205°
2026-04-21 00:18 28.72363 -82.19969 10493 ft 172 kts 204°
2026-04-21 00:18 28.71235 -82.20435 10492 ft 173 kts 204°
2026-04-21 00:18 28.70104 -82.20902 10492 ft 173 kts 204°
2026-04-21 00:19 28.68973 -82.21370 10494 ft 173 kts 204°
2026-04-21 00:19 28.67849 -82.21833 10494 ft 173 kts 204°
2026-04-21 00:19 28.66714 -82.22302 10491 ft 173 kts 204°
2026-04-21 00:19 28.65581 -82.22769 10491 ft 173 kts 204°
2026-04-21 00:20 28.64450 -82.23236 10490 ft 173 kts 204°
2026-04-21 00:20 28.63319 -82.23701 10489 ft 173 kts 204°
2026-04-21 00:20 28.62188 -82.24169 10488 ft 173 kts 204°
2026-04-21 00:20 28.61056 -82.24634 10486 ft 173 kts 204°
2026-04-21 00:21 28.59926 -82.25101 10483 ft 173 kts 204°
2026-04-21 00:21 28.58791 -82.25568 10473 ft 173 kts 204°
2026-04-21 00:21 28.57661 -82.26034 10477 ft 173 kts 204°
2026-04-21 00:21 28.56533 -82.26498 10476 ft 172 kts 204°
2026-04-21 00:22 28.55401 -82.26964 10471 ft 173 kts 204°
2026-04-21 00:22 28.54270 -82.27430 10472 ft 173 kts 204°
2026-04-21 00:22 28.53139 -82.27896 10473 ft 173 kts 204°
2026-04-21 00:22 28.52004 -82.28362 10475 ft 173 kts 204°
2026-04-21 00:23 28.50868 -82.28829 10478 ft 173 kts 204°
2026-04-21 00:23 28.49736 -82.29295 10479 ft 173 kts 204°
2026-04-21 00:23 28.48604 -82.29760 10475 ft 173 kts 204°
2026-04-21 00:23 28.47471 -82.30226 10478 ft 173 kts 204°
2026-04-21 00:24 28.46338 -82.30692 10494 ft 173 kts 204°
2026-04-21 00:24 28.45208 -82.31156 10494 ft 172 kts 204°
2026-04-21 00:24 28.44115 -82.31604 10485 ft 164 kts 204°
2026-04-21 00:24 28.43068 -82.32032 10460 ft 157 kts 205°
2026-04-21 00:25 28.42016 -82.32466 10256 ft 164 kts 204°
2026-04-21 00:25 28.40935 -82.32913 10040 ft 167 kts 204°
2026-04-21 00:25 28.39839 -82.33362 9805 ft 168 kts 204°
2026-04-21 00:25 28.38730 -82.33817 9585 ft 171 kts 204°
2026-04-21 00:26 28.37611 -82.34276 9364 ft 172 kts 203°
2026-04-21 00:26 28.36484 -82.34738 9141 ft 172 kts 203°
2026-04-21 00:26 28.35356 -82.35200 8923 ft 172 kts 202°
2026-04-21 00:26 28.34242 -82.35657 8703 ft 172 kts 202°
2026-04-21 00:27 28.33106 -82.36123 8482 ft 174 kts 202°
2026-04-21 00:27 28.31962 -82.36591 8277 ft 175 kts 202°
2026-04-21 00:27 28.30817 -82.37061 8065 ft 175 kts 202°
2026-04-21 00:27 28.29676 -82.37528 7867 ft 173 kts 202°
2026-04-21 00:28 28.28537 -82.37994 7653 ft 174 kts 202°
2026-04-21 00:28 28.27399 -82.38461 7436 ft 173 kts 201°
2026-04-21 00:28 28.26260 -82.38926 7221 ft 175 kts 201°
2026-04-21 00:28 28.25116 -82.39395 7014 ft 175 kts 201°
2026-04-21 00:29 28.23978 -82.39860 6793 ft 177 kts 201°
2026-04-21 00:29 28.22819 -82.40335 6575 ft 177 kts 200°
2026-04-21 00:29 28.21663 -82.40808 6340 ft 177 kts 200°
2026-04-21 00:29 28.20507 -82.41280 6119 ft 176 kts 200°
2026-04-21 00:30 28.19354 -82.41751 5900 ft 176 kts 200°
2026-04-21 00:30 28.18199 -82.42223 5678 ft 177 kts 199°
2026-04-21 00:30 28.17042 -82.42696 5458 ft 177 kts 200°
2026-04-21 00:30 28.15869 -82.43174 5244 ft 179 kts 199°
2026-04-21 00:31 28.14705 -82.43597 5047 ft 177 kts 197°
2026-04-21 00:31 28.13533 -82.44010 4846 ft 175 kts 197°
2026-04-21 00:31 28.12756 -82.44289 4702 ft 173 kts 197°
2026-04-21 00:31 28.11614 -82.44701 4476 ft 172 kts 195°
2026-04-21 00:32 28.10100 -82.45249 4198 ft 172 kts 194°
2026-04-21 00:32 28.09326 -82.45529 4057 ft 173 kts 194°
2026-04-21 00:32 28.08183 -82.45943 3855 ft 172 kts 194°
2026-04-21 00:32 28.07053 -82.46351 3650 ft 173 kts 194°
2026-04-21 00:33 28.05907 -82.46765 3432 ft 173 kts 193°
2026-04-21 00:33 28.04760 -82.47180 3239 ft 172 kts 193°
2026-04-21 00:33 28.03625 -82.47591 3062 ft 171 kts 193°
2026-04-21 00:33 28.02487 -82.48000 2859 ft 172 kts 193°
2026-04-21 00:34 28.01344 -82.48413 2660 ft 173 kts 193°
2026-04-21 00:34 28.00212 -82.48825 2443 ft 169 kts 192°
2026-04-21 00:34 27.99083 -82.49229 2235 ft 170 kts 192°
2026-04-21 00:34 27.97952 -82.49637 2032 ft 170 kts 192°
2026-04-21 00:35 27.96820 -82.50046 1848 ft 170 kts 192°
2026-04-21 00:35 27.95690 -82.50454 1639 ft 171 kts 191°
2026-04-21 00:35 27.94556 -82.50863 1428 ft 170 kts 191°
2026-04-21 00:35 27.93430 -82.51270 1236 ft 169 kts 194°
2026-04-21 00:36 27.92316 -82.51541 1131 ft 157 kts 181°
2026-04-21 00:36 27.91263 -82.51655 1068 ft 148 kts 179°
2026-04-21 00:36 27.90277 -82.51761 1083 ft 140 kts 180°
2026-04-21 00:36 27.89303 -82.51873 1056 ft 142 kts 181°
2026-04-21 00:37 27.88307 -82.52000 976 ft 143 kts 180°
2026-04-21 00:37 27.87296 -82.52125 921 ft 142 kts 183°
2026-04-21 00:37 27.86464 -82.52644 984 ft 146 kts 239°
2026-04-21 00:37 27.86573 -82.53563 894 ft 121 kts 353°
2026-04-21 00:38 27.87371 -82.53590 894 ft 117 kts
2026-04-21 00:38 27.88186 -82.53525 935 ft 117 kts 13°
2026-04-21 00:38 27.89014 -82.53479 953 ft 121 kts 359°
2026-04-21 00:38 27.89845 -82.53697 991 ft 121 kts 357°
2026-04-21 00:39 27.90670 -82.53815 1018 ft 118 kts
2026-04-21 00:39 27.91493 -82.53961 919 ft 122 kts 352°
2026-04-21 00:39 27.92303 -82.54221 761 ft 119 kts 355°
2026-04-21 00:39 27.93091 -82.54367 588 ft 111 kts
2026-04-21 00:40 27.93797 -82.54419 418 ft 98 kts 10°
2026-04-21 00:40 27.94463 -82.54312 284 ft 96 kts 10°
2026-04-21 00:40 27.95144 -82.54283 176 ft 101 kts
2026-04-21 00:40 27.95842 -82.54259 92 ft 96 kts
2026-04-21 00:41 27.96458 -82.54231 64 ft 79 kts
2026-04-21 00:41 27.96936 -82.54202 35 ft 58 kts
2026-04-21 00:41 27.97219 -82.54204 31 ft 8 kts 358°
2026-04-21 00:41 27.97347 -82.54191 31 ft 33 kts 30°
2026-04-21 00:42 27.97416 -82.53985 28 ft 28 kts 357°
2026-04-21 00:42 27.97592 -82.53983 29 ft 22 kts
2026-04-21 00:42 27.97729 -82.53979 28 ft 18 kts
2026-04-21 00:42 27.97833 -82.53911 28 ft 21 kts 37°
2026-04-21 00:43 27.97894 -82.53866 29 ft 0 kts 23°